This demonstration page uses our WeatherBlox Daily Observations layout. Learn more.

Left ArrowRight Arrow

31.84235, -102.49876

Hourly Observations for March 19, 2015

Temp ( °F °C ) Dew Point ( °F °C ) Humidity (%) Winds ( mph kmh ) Pressure ( in mb ) Visibility ( mi km ) Precip ( " mm )
12:53 am 00:53 Clear 58 14.4 50 10 75 75 S 10 17 29.87 1011 10 16 0.00 0.00
1:53 am 01:53 Clear 58 14.4 50 10 75 75 S 12 19 29.86 1011 10 16 0.00 0.00
2:53 am 02:53 Clear 57 13.9 51 10.6 81 81 SSW 13 20 29.85 1011 10 16 0.00 0.00
3:53 am 03:53 Clear 57 13.9 51 10.6 81 81 SSW 16 26 29.84 1011 10 16 0.00 0.00
4:53 am 04:53 Clear 56 13.3 51 10.6 84 84 SSW 15 24 29.84 1011 10 16 0.00 0.00
5:53 am 05:53 Clear 55 12.8 51 10.6 87 87 SSW 9 15 29.84 1010 8 13 0.00 0.00
6:53 am 06:53 Clear 54 12.2 51 10.6 90 90 SSW 8 13 29.85 1011 7 11 0.00 0.00
7:53 am 07:53 Clear with Mist and Fog 53 11.7 50 10 89 89 SSW 5 7 29.86 1011 6 10 0.00 0.00
8:53 am 08:53 Cloudy 56 13.3 52 11.1 87 87 SSW 9 15 29.88 1012 8 13 0.00 0.00
10:53 am 10:53 Cloudy 59 15 51 10.6 75 75 W 8 13 29.91 1013 10 16 0.00 0.03
11:53 am 11:53 Mostly Cloudy 66 18.9 51 10.6 59 59 W 8 13 29.90 1013 10 16 0.00 0.00
12:53 pm 12:53 Mostly Cloudy 72 22.2 49 9.4 44 44 W 14 22 29.88 1012 10 16 0.00 0.00
1:53 pm 13:53 Cloudy 70 21.1 51 10.6 51 51 W 13 20 29.88 1012 10 16 0.00 0.00
2:53 pm 14:53 Mostly Sunny 73 22.8 49 9.4 43 43 W 13 20 29.86 1011 10 16 0.00 0.03
3:53 pm 15:53 Sunny 74 23.3 47 8.3 38 38 WSW 16 26 29.84 1010 10 16 0.00 0.00
4:53 pm 16:53 Sunny 75 23.9 46 7.8 36 36 W 13 20 29.82 1010 10 16 0.00 0.00
5:53 pm 17:53 Sunny 74 23.3 45 7.2 36 36 WSW 10 17 29.82 1010 10 16 0.00 0.00
6:53 pm 18:53 Sunny 73 22.8 46 7.8 38 38 SW 9 15 29.84 1011 10 16 0.00 0.00
7:53 pm 19:53 Cloudy 70 21.1 48 8.9 46 46 SSW 7 11 29.86 1011 10 16 0.00 0.00
8:53 pm 20:53 Mostly Clear 67 19.4 48 8.9 51 51 SW 5 7 29.88 1012 10 16 0.00 0.00
9:53 pm 21:53 Clear 63 17.2 49 9.4 60 60 S 6 9 29.91 1013 10 16 0.00 0.00
10:53 pm 22:53 Clear 62 16.7 50 10 65 65 SW 5 7 29.93 1014 10 16 0.00 0.00
11:53 pm 23:53 Cloudy 62 16.7 51 10.6 67 67 SW 6 9 29.93 1014 10 16 0.00 0.00

Powered by AerisWeather